This is the latest recevied weather packets stored in our database for station/object DL5ARK. If no packets are shown the sender has not sent any weather packets the latest 1 day(s).
| Time | Temp. | Humidity | Pressure | Rain* | Wind** | Luminosity | Snow |
|---|---|---|---|---|---|---|---|
| 1777996668 | 17.78° C | 65% | 992.4 hPa | 0 mm | 1.79 m/s, 90° | - | - |
| 1777996487 | 17.78° C | 64% | 992.4 hPa | 0 mm | 2.24 m/s, 0° | - | - |
| 1777996127 | 17.78° C | 64% | 992.4 hPa | 0 mm | 0.89 m/s, 22° | - | - |
| 1777995948 | 17.78° C | 64% | 992.4 hPa | 0 mm | 0.45 m/s, 45° | - | - |
| 1777995768 | 18.33° C | 64% | 992.4 hPa | 0 mm | 0.89 m/s, 22° | - | - |
| 1777995588 | 18.33° C | 63% | 992.6 hPa | 0 mm | 2.68 m/s, 67° | - | - |
| 1777995410 | 18.33° C | 63% | 992.6 hPa | 0 mm | 0.89 m/s, 22° | - | - |
| 1777995227 | 18.33° C | 63% | 992.6 hPa | 0 mm | 0.89 m/s, 337° | - | - |
| 1777995048 | 18.33° C | 62% | 992.9 hPa | 0 mm | 1.79 m/s, 90° | - | - |
| 1777994868 | 18.33° C | 62% | 992.6 hPa | 0 mm | 0.45 m/s, 45° | - | - |
| 1777994687 | 18.89° C | 63% | 992.6 hPa | 0 mm | 2.24 m/s, 45° | - | - |
| 1777994508 | 18.89° C | 61% | 992.9 hPa | 0 mm | 4.02 m/s, 90° | - | - |
| 1777994328 | 18.89° C | 62% | 992.9 hPa | 0 mm | 0.45 m/s, 67° | - | - |
| 1777994148 | 18.89° C | 62% | 992.9 hPa | 0 mm | 3.13 m/s, 90° | - | - |
| 1777993967 | 18.89° C | 61% | 992.6 hPa | 0 mm | 1.34 m/s, 45° | - | - |
| 1777993787 | 18.89° C | 61% | 992.9 hPa | 0 mm | 1.34 m/s, 337° | - | - |
| 1777993608 | 18.89° C | 61% | 992.9 hPa | 0 mm | 1.79 m/s, 337° | - | - |
| 1777993430 | 18.89° C | 60% | 992.9 hPa | 0 mm | 2.68 m/s, 337° | - | - |
| 1777993248 | 18.89° C | 60% | 992.9 hPa | 0 mm | 4.47 m/s, 67° | - | - |
| 1777993067 | 18.33° C | 59% | 992.9 hPa | 0 mm | 3.13 m/s, 337° | - | - |
| 1777992888 | 18.89° C | 59% | 992.9 hPa | 0 mm | 2.68 m/s, 90° | - | - |
| 1777992707 | 18.33° C | 58% | 992.9 hPa | 0 mm | 4.47 m/s, 67° | - | - |
| 1777992527 | 18.33° C | 58% | 992.9 hPa | 0 mm | 2.68 m/s, 90° | - | - |
| 1777992167 | 18.89° C | 57% | 992.9 hPa | 0 mm | 0.89 m/s, 337° | - | - |
| 1777991987 | 18.89° C | 56% | 992.9 hPa | 0 mm | 3.58 m/s, 67° | - | - |
* Rain latest hour (hover to see other rain measurements)
** Current wind speed in m/s (hover to see current wind gust speed)